Location: *
(48.4333°N, 5.0333°W)
Time: 03:54:34
(UTC+00:00)

ATLAS 5 CENTAUR R/B - Pass Details

Date: 09 April 2020
Orbit: 543 x 1116 km, 63.4° (Epoch: 01 May)

Event Time Altitude Azimuth Distance (km) Brightness Sun altitude
Rises 19:57:36 0° 210° (SSW) 2,720 5.0 -9.4°
Reaches altitude 10° 19:59:43 10° 207° (SSW) 1,861 4.1 -9.7°
Maximum altitude 20:03:48 64° 126° (SE) 676 1.5 -10.4°
Drops below altitude 10° 20:08:27 10° 46° (NE) 2,102 4.1 -11.0°
Sets 20:10:58 0° 43° (NE) 3,111 5.0 -11.4°
